Location: Southlake
(32.9412°N, 97.1342°W)
Time: 07:42:20
(UTC+00:00)

Cosmos 1656 Rocket - Pass Details

Date: 03 December 2021
Orbit: 794 x 848 km, 71.1° (Epoch: 26 January)

Event Time Altitude Azimuth Distance (km) Brightness Sun altitude
Rises 12:19:33 0° 228° (SW) 3,282 6.5 -11.6°
Reaches altitude 10° 12:22:17 10° 240° (WSW) 2,355 5.6 -11.1°
Maximum altitude 12:26:49 27° 298° (WNW) 1,472 4.4 -10.2°
Drops below altitude 10° 12:31:24 10° 356° (N) 2,372 5.8 -9.3°
Sets 12:34:10 0° 8° (N) 3,311 6.7 -8.7°
